| time (UTC) | temp F | wind direction | speed MPH | gust MPH | rain 1hr in | rain 24hr in | rain mn in | humidity % | barometer mb |
| 20260903024523 | 62 | 196 | 0.0 | 3.0 | 0.00 | 0.01 | 0.01 | 83 | 1018.5 |
| 20260903023045 | 62 | 153 | 0.0 | 3.0 | 0.00 | 0.01 | 0.01 | 85 | 1018.4 |
| 20260903021531 | 63 | 46 | 0.0 | 2.0 | 0.00 | 0.01 | 0.01 | 83 | 1018.5 |
| 20260903020015 | 63 | 263 | 0.0 | 3.0 | 0.00 | 0.01 | 0.01 | 82 | 1018.7 |
| 20260903014522 | 63 | 188 | 1.0 | 2.0 | 0.00 | 0.01 | 0.01 | 81 | 1018.9 |
| 20260903013027 | 63 | 227 | 1.0 | 6.0 | 0.00 | 0.02 | 0.01 | 81 | 1019.0 |
| 20260903011506 | 63 | 284 | 1.0 | 8.0 | 0.00 | 0.04 | 0.01 | 81 | 1018.8 |
| 20260903010034 | 63 | 271 | 0.0 | 2.0 | 0.00 | 0.04 | 0.01 | 83 | 1018.9 |
| 20260903004518 | 64 | 310 | 2.0 | 3.0 | 0.00 | 0.04 | 0.01 | 82 | 1018.6 |
| 20260903003024 | 63 | 118 | 1.0 | 6.0 | 0.00 | 0.04 | 0.01 | 84 | 1018.4 |
| 20260903001531 | 63 | 259 | 1.0 | 3.0 | 0.00 | 0.04 | 0.01 | 86 | 1018.1 |
| 20260903000010 | 63 | 238 | 0.0 | 2.0 | 0.00 | 0.04 | 0.01 | 90 | 1018.3 |
| 20260902234523 | 63 | 281 | 0.0 | 2.0 | 0.00 | 0.04 | 0.01 | 91 | 1018.3 |
| 20260902233019 | 63 | 267 | 0.0 | 2.0 | 0.00 | 0.04 | 0.01 | 90 | 1018.6 |
| 20260902231537 | 64 | 290 | 0.0 | 2.0 | 0.00 | 0.04 | 0.01 | 90 | 1019.2 |
| 20260902230031 | 64 | 248 | 0.0 | 2.0 | 0.00 | 0.04 | 0.01 | 89 | 1019.6 |
| 20260902224512 | 64 | 274 | 0.0 | 1.0 | 0.00 | 0.04 | 0.01 | 89 | 1020.0 |
| 20260902223018 | 64 | 274 | 0.0 | 2.0 | 0.00 | 0.04 | 0.01 | 89 | 1020.1 |
| 20260902221528 | 64 | 250 | 0.0 | 2.0 | 0.00 | 0.04 | 0.01 | 88 | 1020.3 |
| 20260902220035 | 65 | 232 | 0.0 | 2.0 | 0.00 | 0.04 | 0.01 | 89 | 1020.1 |
| 20260902214535 | 65 | 53 | 0.0 | 2.0 | 0.00 | 0.04 | 0.01 | 88 | 1020.0 |
| 20260902213014 | 65 | 53 | 0.0 | 1.0 | 0.00 | 0.04 | 0.01 | 87 | 1020.1 |
| 20260902211527 | 66 | 53 | 0.0 | 2.0 | 0.00 | 0.04 | 0.01 | 86 | 1020.1 |
| 20260902210027 | 66 | 93 | 0.0 | 2.0 | 0.00 | 0.04 | 0.01 | 85 | 1020.3 |
| 20260902204530 | 66 | 331 | 0.0 | 3.0 | 0.00 | 0.04 | 0.01 | 85 | 1020.4 |
| 20260902203029 | 67 | 105 | 0.0 | 2.0 | 0.00 | 0.04 | 0.01 | 84 | 1020.4 |
| 20260902201531 | 67 | 73 | 0.0 | 2.0 | 0.00 | 0.04 | 0.01 | 83 | 1020.4 |
| 20260902200024 | 68 | 145 | 2.0 | 6.0 | 0.00 | 0.04 | 0.01 | 78 | 1020.2 |
| 20260902194532 | 69 | 174 | 1.0 | 2.0 | 0.00 | 0.04 | 0.01 | 81 | 1020.4 |
| 20260902193032 | 68 | 334 | 1.0 | 3.0 | 0.00 | 0.04 | 0.01 | 80 | 1020.6 |
| 20260902191534 | 67 | 140 | 0.0 | 3.0 | 0.00 | 0.04 | 0.01 | 80 | 1021.0 |
| 20260902190021 | 67 | 169 | 0.0 | 2.0 | 0.00 | 0.04 | 0.01 | 83 | 1020.9 |
| 20260902184530 | 66 | 220 | 0.0 | 2.0 | 0.00 | 0.04 | 0.01 | 82 | 1021.4 |
| 20260902183030 | 67 | 182 | 1.0 | 4.0 | 0.00 | 0.04 | 0.01 | 83 | 1021.4 |
| 20260902181534 | 67 | 140 | 0.0 | 2.0 | 0.00 | 0.04 | 0.01 | 81 | 1021.2 |
| 20260902180017 | 67 | 360 | 0.0 | 2.0 | 0.00 | 0.04 | 0.01 | 83 | 1021.2 |
| 20260902174529 | 66 | 96 | 0.0 | 4.0 | 0.00 | 0.04 | 0.01 | 82 | 1021.3 |
| 20260902173034 | 65 | 138 | 0.0 | 2.0 | 0.00 | 0.04 | 0.01 | 83 | 1021.2 |
| 20260902171530 | 65 | 317 | 1.0 | 4.0 | 0.00 | 0.04 | 0.01 | 81 | 1021.6 |
| 20260902170019 | 66 | 172 | 1.0 | 8.0 | 0.00 | 0.04 | 0.01 | 79 | 1021.7 |
| 20260902164527 | 68 | 308 | 0.0 | 2.0 | 0.00 | 0.04 | 0.01 | 79 | 1021.6 |
| 20260902163003 | 68 | 13 | 0.0 | 2.0 | 0.00 | 0.04 | 0.01 | 78 | 1021.3 |
| 20260902161528 | 67 | 70 | 1.0 | 2.0 | 0.00 | 0.04 | 0.01 | 80 | 1021.3 |
| 20260902160013 | 66 | 209 | 1.0 | 3.0 | 0.00 | 0.04 | 0.01 | 83 | 1022.0 |
| 20260902154520 | 66 | 227 | 0.0 | 6.0 | 0.00 | 0.04 | 0.01 | 79 | 1022.1 |
| 20260902153024 | 66 | 287 | 2.0 | 7.0 | 0.00 | 0.04 | 0.01 | 79 | 1022.1 |
| 20260902151509 | 66 | 343 | 1.0 | 3.0 | 0.00 | 0.04 | 0.01 | 81 | 1022.5 |
| 20260902150013 | 67 | 288 | 0.0 | 2.0 | 0.00 | 0.04 | 0.01 | 83 | 1022.5 |
| 20260902144518 | 67 | 229 | 0.0 | 3.0 | 0.00 | 0.04 | 0.01 | 80 | 1022.2 |
| 20260902143026 | 66 | 298 | 0.0 | 3.0 | 0.00 | 0.04 | 0.01 | 83 | 1022.2 |
| 20260902141529 | 66 | 42 | 0.0 | 2.0 | 0.00 | 0.04 | 0.01 | 82 | 1022.1 |
| 20260902140011 | 64 | 140 | 0.0 | 2.0 | 0.00 | 0.04 | 0.01 | 87 | 1022.0 |
| 20260902134516 | 64 | 118 | 0.0 | 2.0 | 0.00 | 0.04 | 0.01 | 88 | 1021.9 |
| 20260902133027 | 64 | 93 | 0.0 | 2.0 | 0.00 | 0.04 | 0.01 | 90 | 1021.6 |
| 20260902131532 | 63 | 71 | 0.0 | 2.0 | 0.00 | 0.04 | 0.01 | 91 | 1021.2 |
| 20260902130030 | 62 | 181 | 0.0 | 2.0 | 0.00 | 0.07 | 0.01 | 92 | 1021.6 |
| 20260902124524 | 61 | 113 | 0.0 | 2.0 | 0.00 | 0.07 | 0.01 | 95 | 1021.7 |
| 20260902123020 | 60 | 65 | 0.0 | 3.0 | 0.00 | 0.10 | 0.01 | 95 | 1021.8 |
| 20260902121523 | 60 | 74 | 1.0 | 2.0 | 0.00 | 0.12 | 0.01 | 96 | 1021.9 |
| 20260902120030 | 60 | 66 | 0.0 | 2.0 | 0.00 | 0.17 | 0.01 | 97 | 1021.7 |
| 20260902114602 | 60 | 66 | 0.0 | 2.0 | 0.00 | 0.20 | 0.01 | 97 | 1021.8 |
| 20260902113016 | 59 | 321 | 0.0 | 0.0 | 0.00 | 0.23 | 0.01 | 97 | 1021.9 |
| 20260902111522 | 59 | 321 | 0.0 | 0.0 | 0.00 | 0.26 | 0.01 | 97 | 1022.0 |
| 20260902110013 | 59 | 321 | 0.0 | 0.0 | 0.00 | 0.31 | 0.01 | 97 | 1021.9 |
| 20260902104508 | 59 | 321 | 0.0 | 0.0 | 0.00 | 0.31 | 0.01 | 97 | 1021.6 |
| 20260902103013 | 59 | 321 | 0.0 | 0.0 | 0.00 | 0.31 | 0.01 | 97 | 1021.4 |
| 20260902101509 | 58 | 321 | 0.0 | 0.0 | 0.00 | 0.31 | 0.01 | 97 | 1021.3 |
| 20260902100012 | 58 | 321 | 0.0 | 0.0 | 0.00 | 0.31 | 0.01 | 97 | 1021.2 |
| 20260902094512 | 58 | 321 | 0.0 | 0.0 | 0.00 | 0.31 | 0.01 | 97 | 1021.2 |
| 20260902093010 | 58 | 321 | 0.0 | 0.0 | 0.00 | 0.31 | 0.01 | 97 | 1021.1 |
| 20260902091515 | 59 | 321 | 0.0 | 0.0 | 0.00 | 0.31 | 0.01 | 96 | 1021.0 |
| 20260902090010 | 59 | 321 | 0.0 | 2.0 | 0.00 | 0.31 | 0.01 | 97 | 1020.9 |
| 20260902084522 | 59 | 321 | 0.0 | 1.0 | 0.00 | 0.31 | 0.01 | 97 | 1020.9 |
| 20260902083008 | 59 | 321 | 0.0 | 2.0 | 0.00 | 0.31 | 0.01 | 97 | 1020.8 |
| 20260902081511 | 59 | 351 | 0.0 | 2.0 | 0.00 | 0.31 | 0.01 | 96 | 1020.9 |
| 20260902080015 | 59 | 351 | 0.0 | 2.0 | 0.00 | 0.31 | 0.01 | 96 | 1021.0 |
| 20260902074514 | 59 | 336 | 0.0 | 2.0 | 0.00 | 0.31 | 0.01 | 97 | 1021.0 |
| 20260902073014 | 59 | 300 | 0.0 | 0.0 | 0.00 | 0.31 | 0.01 | 97 | 1021.0 |
| 20260902071513 | 60 | 300 | 0.0 | 0.0 | 0.00 | 0.31 | 0.01 | 96 | 1021.0 |
| 20260902070018 | 60 | 300 | 0.0 | 1.0 | 0.00 | 0.31 | 0.01 | 96 | 1021.1 |
| 20260902064522 | 60 | 300 | 0.0 | 2.0 | 0.00 | 0.31 | 0.01 | 96 | 1021.0 |
| 20260902063023 | 60 | 300 | 0.0 | 2.0 | 0.00 | 0.31 | 0.01 | 97 | 1020.9 |
| 20260902061535 | 60 | 300 | 0.0 | 1.0 | 0.00 | 0.31 | 0.01 | 97 | 1020.9 |
| 20260902060019 | 60 | 300 | 0.0 | 2.0 | 0.00 | 0.31 | 0.01 | 97 | 1020.7 |
| 20260902054534 | 60 | 300 | 0.0 | 0.0 | 0.00 | 0.31 | 0.01 | 97 | 1020.5 |
| 20260902053023 | 60 | 300 | 0.0 | 0.0 | 0.01 | 0.31 | 0.01 | 97 | 1020.3 |
| 20260902051520 | 60 | 300 | 0.0 | 2.0 | 0.01 | 0.31 | 0.01 | 96 | 1020.3 |
| 20260902050020 | 60 | 299 | 0.0 | 2.0 | 0.01 | 0.31 | 0.01 | 96 | 1020.2 |
| 20260902044519 | 60 | 299 | 0.0 | 0.0 | 0.01 | 0.31 | 0.01 | 96 | 1020.1 |
| 20260902043021 | 61 | 299 | 0.0 | 2.0 | 0.00 | 0.30 | 0.00 | 96 | 1019.9 |
| 20260902041526 | 61 | 299 | 0.0 | 1.0 | 0.00 | 0.30 | 0.00 | 96 | 1019.7 |
| 20260902040026 | 61 | 299 | 0.0 | 2.0 | 0.00 | 0.30 | 0.00 | 96 | 1019.6 |
| 20260902034526 | 61 | 299 | 0.0 | 2.0 | 0.00 | 0.30 | 0.30 | 96 | 1019.6 |
| 20260902033020 | 61 | 299 | 0.0 | 2.0 | 0.00 | 0.30 | 0.30 | 96 | 1019.6 |
| 20260902031525 | 61 | 299 | 0.0 | 2.0 | 0.00 | 0.30 | 0.30 | 96 | 1019.7 |
| 20260902030007 | 61 | 311 | 0.0 | 2.0 | 0.00 | 0.30 | 0.30 | 96 | 1019.6 |